Weather History for McCall, ID

Change the Weather History Date:

Thursday, November 24, 2011

  Actual Average Record
Temperature  
Mean Temperature 37 °F 24 °F  
Max Temperature 41 °F 32 °F 55 °F (1939)
Min Temperature 33 °F 17 °F -18 °F (2010)
Degree Days  
Heating Degree Days 28 40  
Month to date heating degree days 897 844  
Since 1 July heating degree days 1926 2387  
Cooling Degree Days 0 0  
Month to date cooling degree days 0 0  
Year to date cooling degree days 56 25  
Moisture  
Dew Point 30 °F    
Average Humidity 75    
Maximum Humidity 96    
Minimum Humidity 54    
Precipitation  
Precipitation 0.07 in 0.07 in 0.83 in (1983)
Month to date precipitation 1.42 2.29  
Year to date precipitation 22.69 17.61  
Sea Level Pressure  
Sea Level Pressure 29.83 in    
Wind  
Wind Speed 6 mph (SSE)    
Max Wind Speed 16 mph    
Max Gust Speed 21 mph    
Visibility 7 miles    
Events Snow    
T = Trace of Precipitation, MM = Missing Value Source: NWS Daily Summary

Daily Weather History Graph

Daily Weather History Graph

Search for Another Location

Airport:

Trip Planner

Search our weather history database for the weather conditions in past years. The results will help you decide how hot, cold, wet, or windy it might be!

Date:

Astronomy

Nov. 24, 2011 Rise Set
Actual Time 7:53 AM MST 5:08 PM MST
Civil Twilight 7:20 AM MST 5:40 PM MST
Nautical Twilight 6:44 AM MST 6:17 PM MST
Astronomical Twilight 6:09 AM MST 6:51 PM MST
Moon 7:17 AM MST (11/24) 4:41 PM MST (11/24)
Length of Visible Light 10h 19m
Length of Day
9h 15m
Waning Crescent, 0% of the Moon is Illuminated
Nov 24
Waning Crescent
Nov 24
New
Dec 2
First Quarter
Dec 10
Full
Dec 17
Last Quarter

Hourly Weather History & Observations

Time (MST) Temp. Windchill Dew Point Humidity Pressure Visibility Wind Dir Wind Speed Gust Speed Precip Events Conditions
12:51 AM 36.0 °F - 26.1 °F 67% 29.75 in 10.0 mi Calm Calm - N/A   Clear
1:51 AM 34.0 °F - 26.1 °F 73% 29.76 in 10.0 mi Calm Calm - N/A   Clear
2:51 AM 35.1 °F - 28.0 °F 76% 29.75 in 10.0 mi Calm Calm - N/A   Clear
3:51 AM 37.9 °F - 26.1 °F 62% 29.77 in 10.0 mi Calm Calm - N/A   Overcast
4:51 AM 39.9 °F 33.4 °F 24.1 °F 53% 29.76 in 10.0 mi SE 10.4 mph - N/A   Overcast
5:51 AM 39.0 °F 34.0 °F 24.1 °F 55% 29.80 in 10.0 mi SSE 6.9 mph - N/A   Overcast
6:51 AM 37.9 °F 32.7 °F 26.1 °F 62% 29.80 in 10.0 mi SSW 6.9 mph - N/A   Overcast
7:17 AM 33.8 °F 25.3 °F 30.2 °F 87% 29.80 in 6.0 mi South 11.5 mph - 0.00 in Snow Light Snow
7:51 AM 33.1 °F 25.5 °F 30.9 °F 92% 29.85 in 9.0 mi SW 9.2 mph - 0.00 in   Overcast
8:51 AM 34.0 °F - 30.0 °F 85% 29.86 in 10.0 mi Calm Calm - 0.00 in Snow Light Snow
8:59 AM 33.8 °F - 30.2 °F 87% 29.82 in 8.0 mi Calm Calm - 0.00 in Snow Light Snow
9:05 AM 33.8 °F 29.6 °F 30.2 °F 87% 29.82 in 8.0 mi SSE 4.6 mph - 0.00 in Snow Light Snow
9:44 AM 33.8 °F 30.8 °F 30.2 °F 87% 29.83 in 8.0 mi ESE 3.5 mph - 0.00 in Snow Light Snow
9:51 AM 34.0 °F 29.8 °F 30.0 °F 85% 29.86 in 9.0 mi South 4.6 mph - 0.00 in   Overcast
9:58 AM 33.8 °F 28.6 °F 30.2 °F 87% 29.83 in 10.0 mi SSE 5.8 mph - N/A   Overcast
10:51 AM 35.1 °F 29.3 °F 30.0 °F 82% 29.88 in 9.0 mi SE 6.9 mph - 0.00 in Snow Light Snow
11:19 AM 33.8 °F 29.6 °F 30.2 °F 87% 29.84 in 5.0 mi SE 4.6 mph - 0.01 in Snow Light Snow
11:51 AM 35.1 °F 28.6 °F 30.9 °F 85% 29.85 in 10.0 mi SE 8.1 mph - 0.01 in   Overcast
12:45 PM 35.6 °F 30.7 °F 30.2 °F 81% 29.81 in 10.0 mi SSE 5.8 mph - 0.00 in   Overcast
12:51 PM 36.0 °F 32.1 °F 30.9 °F 82% 29.84 in 10.0 mi SSE 4.6 mph - 0.00 in   Overcast
1:51 PM 36.0 °F 29.6 °F 30.0 °F 79% 29.84 in 10.0 mi South 8.1 mph - N/A   Overcast
2:51 PM 37.0 °F 31.0 °F 28.9 °F 73% 29.83 in 10.0 mi South 8.1 mph - N/A   Overcast
3:51 PM 37.0 °F 31.0 °F 28.0 °F 70% 29.81 in 10.0 mi South 8.1 mph - N/A   Mostly Cloudy
4:51 PM 37.9 °F 32.7 °F 27.0 °F 65% 29.82 in 10.0 mi SSE 6.9 mph - N/A   Overcast
6:51 PM 37.0 °F 30.4 °F 28.9 °F 73% 29.85 in 10.0 mi SSE 9.2 mph 18.4 mph 0.00 in   Overcast
7:02 PM 35.6 °F 27.1 °F 30.2 °F 81% 29.83 in 10.0 mi South 12.7 mph 20.7 mph 0.00 in Snow Light Snow
7:51 PM 34.0 °F 28.8 °F 32.0 °F 92% 29.87 in 10.0 mi SE 5.8 mph - 0.00 in   Overcast
8:04 PM 33.8 °F 28.6 °F 30.2 °F 87% 29.82 in 10.0 mi ESE 5.8 mph - 0.00 in   Overcast
8:37 PM 33.8 °F - 30.2 °F 87% 29.83 in 5.0 mi Calm Calm - 0.00 in Snow Light Snow
8:51 PM 34.0 °F 31.0 °F 32.0 °F 92% 29.88 in 5.0 mi South 3.5 mph - 0.00 in Snow Light Snow
9:09 PM 33.8 °F 27.7 °F 30.2 °F 87% 29.83 in 2.0 mi SSE 6.9 mph - 0.01 in Snow Light Snow
9:41 PM 33.8 °F 25.8 °F 32.0 °F 93% 29.84 in 2.0 mi SSE 10.4 mph - 0.02 in Snow Light Snow
9:47 PM 33.8 °F 24.8 °F 32.0 °F 93% 29.84 in 1.8 mi SSE 12.7 mph - 0.03 in Snow Light Snow
9:51 PM 33.1 °F 24.9 °F 32.0 °F 96% 29.88 in 1.5 mi SSE 10.4 mph - 0.03 in Snow Light Snow
10:14 PM 33.8 °F 25.3 °F 32.0 °F 93% 29.83 in 2.0 mi SE 11.5 mph - 0.01 in Snow Light Snow
10:23 PM 33.8 °F 26.4 °F 30.2 °F 87% 29.84 in 5.0 mi SSE 9.2 mph - 0.01 in Snow Light Snow
10:51 PM 33.1 °F 24.9 °F 30.9 °F 92% 29.88 in 3.0 mi SE 10.4 mph - 0.01 in Snow Light Snow
10:56 PM 33.8 °F 24.8 °F 30.2 °F 87% 29.83 in 1.8 mi SSE 12.7 mph - 0.01 in Snow Light Snow
11:10 PM 33.8 °F 25.3 °F 30.2 °F 87% 29.82 in 2.0 mi SE 11.5 mph - 0.02 in Snow Light Snow
11:26 PM 33.8 °F 26.4 °F 32.0 °F 93% 29.83 in 4.0 mi SSE 9.2 mph - 0.02 in Snow Light Snow